sat.trackr.live / text

‹ back to catalog

STARLINK-36846

NORAD 67894 · 2026-035R

PAYLOAD ACTIVE UNKNOWN

§ Identity

Operator
Country
US
Launch date
2026-02-21
Launch site
AFWTR
Launch vehicle
Mass (kg)
RCS (m²)

Purposes: comms

External: N2YO · Heavens-Above · Gunter

§ Orbital elements

Epoch: 2026-09-19T06:53:34.343520Z

Period
93.91 min
Inclination
97.2843°
Eccentricity
0.0003664
Mean motion
15.33453531 rev/d
Perigee alt
463.0 km
Apogee alt
468.0 km
Semi-major
6,843.7 km
B*
4.2684e-4
RAAN
194.1000°
Arg perigee
90.5026°
Mean anomaly
269.6636°
Rev number
3,365

§ Raw data

STARLINK-368461 67894U 26035R   26262.28720305  .00013736  00000+0  42684-3 0  99912 67894  97.2843 194.1000 0003664  90.5026 269.6636 15.33453531 33653

JSON: /api/v1/satellites/67894 · /tle

For live sub-satellite position, see the globe view (requires WebGL).

§ Visibility from observer

Set your observer location to see the next 7 days of passes ≥ 10°. The values pass through the URL so the page stays shareable.

No JS? Fill the form by hand. The geolocation button needs JavaScript.